[[{"header":{"parameterUnit":"m.s-1","parameterCategory":1,"la1":30.2991,"la2":30.254,"lo1":-89.0895,"lo2":-89.0444,"dy":0.0017,"dx":0.0017,"nx":28,"ny":28,"refTime":"2023-06-18T21:00:00:Z","depth":0,"parameterNumber":2,"parameterNumberName":"U-component_of_WINDS"},"data":[0,0,0,0,0,0,0,0,0,0,0,0,0,0,0,0,0,0,0,0,0,0,0,0,0,0,0,0,0,0,0,0,0,0,0,0,0,0,0,0,0,0,0,0,0,0,0,0,0,0,0,0,0,0,0,0,0,0,3.2538,3.2538,0,3.2571,3.2571,3.2572,3.2487,3.2484,3.2481,3.2479,3.252,3.2524,3.2527,0,0,0,0,0,0,0,0,0,0,0,0,0,3.241,3.2413,3.2538,3.2538,3.2538,3.2571,3.2571,3.2572,3.2487,3.2484,3.2481,3.2478,3.2519,3.2523,3.2527,0,0,0,0,0,0,0,0,0,0,0,0,0,3.2457,3.2414,3.2538,3.25,3.2497,3.2571,3.2571,3.2572,3.2488,3.2484,3.248,3.2476,3.2517,3.2523,3.2528,3.2642,0,0,3.2545,3.2547,0,0,0,0,0,0,0,0,3.2455,3.2462,3.2505,3.2503,3.2499,3.252,3.2542,3.2596,3.2489,3.2492,3.2479,3.2474,3.2524,3.2529,3.2544,3.2644,3.2646,3.2545,3.2548,3.2551,3.2552,0,0,0,0,0,0,0,3.2451,3.246,3.2551,3.2506,3.2502,3.2485,3.2487,3.2552,3.253,3.2491,3.2485,3.249,3.2522,3.2539,3.2544,3.2646,3.2545,3.255,3.2553,3.2555,3.2848,3.2853,0,0,0,0,0,0,3.2452,3.2458,3.255,3.2552,3.2466,3.249,3.2493,3.2518,3.2529,3.2527,3.2493,3.2486,3.2532,3.2538,3.2545,3.2683,3.2551,3.2556,3.2559,3.2844,3.2849,3.2854,0,0,0,0,0,0,3.2449,3.2461,3.2549,3.2503,3.2513,3.2497,3.2526,3.2521,3.2538,3.2531,3.2527,3.2514,3.2529,3.2538,3.262,3.2683,3.2558,3.2563,3.2839,3.2846,3.2852,3.2957,0,0,0,0,0,0,3.2446,3.246,3.2501,3.2505,3.2516,3.2619,3.253,3.2524,3.2546,3.2537,3.2549,3.2548,3.2526,3.2612,3.2625,3.2688,3.2567,3.2833,3.2842,3.285,3.2948,3.2967,3.2983,0,0,0,0,0,3.2442,3.2529,3.2503,3.2515,3.2565,3.2623,3.2629,3.2601,3.2552,3.2594,3.2591,3.2547,3.2674,3.2621,3.2635,3.2701,3.2829,3.2839,3.2849,3.294,3.2963,3.2982,0,0,0,0,0,0,3.2534,3.2529,3.25,3.259,3.2608,3.2608,3.266,3.2626,3.2658,3.2648,3.2614,3.2618,3.2708,3.2712,3.2653,3.2815,3.2744,3.2757,3.2808,3.283,3.2847,3.2844,3.2572,0,0,0,0,0,3.2565,3.2609,3.2603,3.2684,3.2694,3.2677,3.27,3.2677,3.2695,3.2702,3.2704,3.2725,3.277,3.28,3.2841,3.2949,3.2953,3.3002,3.3019,3.3033,3.3046,3.3108,3.3131,3.2888,3.2888,3.2888,0,0,3.2629,3.2632,3.2662,3.2703,3.2713,3.2764,3.2683,3.2738,3.2776,3.2711,3.2788,3.2792,3.2813,3.291,3.2952,3.2916,3.3114,3.3046,3.3058,3.3062,3.3121,3.3144,3.3165,3.2895,3.2894,3.2892,0,0,3.2771,3.2776,3.2846,3.2859,3.2876,3.2865,3.2882,3.2889,3.2888,3.2965,3.2919,3.2966,3.3042,3.3061,3.3081,3.3237,3.32,3.3252,3.3343,3.3404,3.3423,3.344,3.3499,3.3521,3.3264,3.3264,3.3264,0,3.2849,3.2919,3.2887,3.2947,3.2968,3.2911,3.2985,3.2999,3.303,3.3048,3.3007,3.3106,3.3116,3.3219,3.3257,3.3274,3.3296,3.3249,3.3423,3.3439,3.3455,3.3511,3.3533,3.3271,3.327,3.3269,3.3269,0,3.3017,3.3067,3.3122,3.3152,3.318,3.3247,3.3228,3.3261,3.3238,3.3232,3.3315,3.3326,3.337,3.3393,3.337,3.3494,3.3472,3.3428,3.3355,3.3485,3.3537,3.3558,3.328,3.3277,3.3275,3.3274,0,0,3.3214,3.3229,3.325,3.3265,3.3282,3.3322,3.3389,3.3431,3.3462,3.3487,3.3544,3.3614,3.3574,3.3597,3.3577,3.3631,3.3759,3.3581,3.3581,3.3616,3.3901,3.3935,3.396,3.3735,3.3739,3.3742,3.3901,0,3.3357,3.3467,3.3443,3.3554,3.3603,3.3552,3.3611,3.3631,3.3629,3.3673,3.3672,3.3723,3.3666,3.368,3.3731,3.3732,3.3816,3.3721,3.3792,3.3795,3.3788,3.3987,3.4022,3.417,3.392,3.3924,3.3926,0,3.3536,3.3568,3.3683,3.3697,3.3717,3.377,3.3809,3.3851,3.3875,3.387,3.3898,3.3869,3.3941,3.3868,3.3968,3.3904,3.3933,3.3939,3.3944,3.395,3.3868,3.4,3.4217,3.424,3.3958,3.3955,3.3953,0,3.3672,3.3744,3.3823,3.3838,3.3855,3.3894,3.3904,3.3923,3.3952,3.3988,3.4007,3.4052,3.4077,3.4114,3.4101,3.4048,3.4205,3.413,3.4207,3.4208,3.4242,3.424,3.4467,3.4258,3.4258,3.4258,3.4257,0,3.3834,3.3907,3.3885,3.3934,3.4017,3.399,3.4075,3.4079,3.4098,3.415,3.4111,3.4161,3.4139,3.419,3.4181,3.4268,3.4279,3.428,3.4277,3.4284,3.4285,3.4303,3.4293,3.4264,3.4262,3.4261,3.426,0,3.3998,3.3986,3.407,3.4081,3.4086,3.4147,3.4158,3.4207,3.4204,3.4271,3.4286,3.4282,3.434,3.433,3.4395,3.4389,3.4499,3.4482,3.449,3.4487,3.4565,3.4559,3.4813,3.4847,3.4614,3.4617,3.4618,0,3.4102,3.4158,3.4176,3.4208,3.422,3.4271,3.4301,3.428,3.4313,3.4347,3.4393,3.4448,3.449,3.4587,3.4592,3.4644,3.4629,3.4715,3.4636,3.4644,3.4634,3.4631,3.4639,3.4731,3.4733,3.4735,3.4737,0,3.429,3.4282,3.4325,3.4368,3.4404,3.4437,3.4466,3.4495,3.4477,3.4518,3.4576,3.4609,3.4677,3.4734,3.4783,3.4797,3.4767,3.4762,3.4783,3.4791,3.4795,3.4797,3.4534,3.4756,3.4754,3.4753,3.4752,3.4751,3.4429,3.4478,3.4499,3.455,3.457,3.46,3.4647,3.4651,3.4699,3.475,3.4736,3.4805,3.4833,3.4895,3.4916,3.4972,3.4941,3.497,3.4978,3.4986,3.4997,3.4786,3.4981,3.498,3.4979,3.4979,3.4979,0,3.4617,3.4629,3.4676,3.4719,3.476,3.4726,3.4759,3.4797,3.4856,3.4884,3.4928,3.4999,3.5055,3.5067,3.5122,3.5165,3.5153,3.518,3.5178,3.5183,3.502,3.4997,3.519,3.519,3.519,3.519,3.5189,3.5189,3.4719,3.4801,3.4797,3.4891,3.4904,3.4969,3.4991,3.502,3.5043,3.5123,3.5169,3.5176,3.52,3.5257,3.5309,3.5312,3.5335,3.5369,3.5367,3.5214,3.5193,3.5173,3.5152,3.5374,3.5374,3.5525,3.5526,3.5527]},{"header":{"parameterUnit":"m.s-1","parameterCategory":1,"la1":30.2991,"la2":30.254,"lo1":-89.0895,"lo2":-89.0444,"dy":0.0017,"dx":0.0017,"nx":28,"ny":28,"refTime":"2023-06-18T21:00:00:Z","depth":0,"parameterNumber":3,"parameterNumberName":"V-component_of_WINDS"},"data":[0,0,0,0,0,0,0,0,0,0,0,0,0,0,0,0,0,0,0,0,0,0,0,0,0,0,0,0,0,0,0,0,0,0,0,0,0,0,0,0,0,0,0,0,0,0,0,0,0,0,0,0,0,0,0,0,0,0,3.6303,3.6305,0,3.6527,3.653,3.6532,3.6521,3.6518,3.6515,3.6512,3.6748,3.6757,3.6766,0,0,0,0,0,0,0,0,0,0,0,0,0,3.5872,3.588,3.6303,3.6305,3.6308,3.6527,3.653,3.6533,3.6522,3.6518,3.6514,3.651,3.6745,3.6756,3.6767,0,0,0,0,0,0,0,0,0,0,0,0,0,3.6074,3.5882,3.6302,3.6329,3.6333,3.6526,3.653,3.6534,3.6523,3.6518,3.6513,3.6508,3.6741,3.6754,3.6768,3.6951,0,0,3.6811,3.6817,0,0,0,0,0,0,0,0,3.6062,3.609,3.6322,3.6327,3.6333,3.6491,3.6465,3.6674,3.6524,3.6451,3.6512,3.6506,3.6667,3.6686,3.6739,3.6962,3.6972,3.6812,3.6821,3.6826,3.683,0,0,0,0,0,0,0,3.6048,3.608,3.6392,3.6325,3.6332,3.6332,3.6355,3.6504,3.6583,3.6457,3.6457,3.6483,3.6669,3.6726,3.6745,3.6976,3.6812,3.6824,3.6833,3.6838,3.7365,3.737,0,0,0,0,0,0,3.6028,3.6068,3.6384,3.6398,3.6183,3.6344,3.637,3.6445,3.6582,3.6598,3.6487,3.6482,3.6704,3.6728,3.6753,3.6979,3.6826,3.6839,3.6847,3.7359,3.7366,3.7372,0,0,0,0,0,0,3.6018,3.6056,3.6375,3.6234,3.6274,3.6356,3.6441,3.6452,3.6509,3.6604,3.6619,3.653,3.6702,3.6733,3.6903,3.6987,3.6846,3.6858,3.7353,3.7361,3.7369,3.7431,0,0,0,0,0,0,3.6006,3.6053,3.6121,3.6235,3.6282,3.6519,3.6446,3.646,3.6533,3.6528,3.6649,3.6664,3.67,3.6882,3.6916,3.7004,3.6869,3.7345,3.7356,3.7366,3.7422,3.7441,3.7457,0,0,0,0,0,3.5991,3.613,3.6124,3.6163,3.6368,3.6524,3.6551,3.6587,3.6539,3.6611,3.6672,3.6661,3.6972,3.6899,3.6938,3.7031,3.734,3.7353,3.7366,3.7414,3.7437,3.7456,0,0,0,0,0,0,3.6025,3.6145,3.6141,3.632,3.6412,3.6521,3.6612,3.661,3.6718,3.671,3.6752,3.678,3.695,3.7007,3.6924,3.7217,3.715,3.7171,3.7174,3.7197,3.7214,3.7198,3.6881,0,0,0,0,0,3.6053,3.6167,3.6267,3.6416,3.6462,3.6529,3.6598,3.6618,3.6716,3.6755,3.6829,3.6926,3.7046,3.7124,3.7239,3.743,3.7458,3.7513,3.753,3.7544,3.7563,3.7672,3.7699,3.7414,3.7414,3.7413,0,0,3.6113,3.6193,3.6262,3.6425,3.6498,3.6618,3.6562,3.669,3.6781,3.6775,3.694,3.6998,3.7109,3.729,3.7374,3.7343,3.7648,3.756,3.7571,3.7582,3.7688,3.7715,3.7739,3.7422,3.7421,3.7419,0,0,3.6284,3.6354,3.6488,3.6563,3.6674,3.6718,3.6751,3.6862,3.69,3.7065,3.7064,3.7174,3.7378,3.7459,3.7527,3.7731,3.7727,3.7768,3.7859,3.7966,3.7988,3.8008,3.8085,3.8112,3.7785,3.7785,3.7786,0,3.6345,3.6523,3.6557,3.6688,3.6761,3.676,3.6898,3.697,3.7114,3.7166,3.7128,3.7388,3.7462,3.7665,3.7715,3.7768,3.781,3.7755,3.7981,3.8002,3.8022,3.8096,3.8124,3.779,3.7789,3.7789,3.7789,0,3.6595,3.6719,3.6814,3.6953,3.7037,3.717,3.7227,3.7308,3.7322,3.7371,3.7542,3.7632,3.7767,3.7816,3.783,3.8022,3.8,3.7972,3.7906,3.8053,3.8123,3.8151,3.7796,3.7795,3.7794,3.7792,0,0,3.6794,3.6951,3.6985,3.705,3.7174,3.7272,3.7407,3.7538,3.7609,3.7709,3.7826,3.8,3.7976,3.8052,3.8076,3.8169,3.8331,3.813,3.8134,3.8167,3.8552,3.8575,3.8606,3.8327,3.8332,3.8337,3.8544,0,3.698,3.7217,3.7253,3.7464,3.7581,3.7584,3.7702,3.7793,3.7843,3.7952,3.8008,3.8132,3.8088,3.8136,3.8227,3.8291,3.8409,3.8276,3.844,3.8446,3.8415,3.8643,3.8667,3.8857,3.8571,3.8576,3.8579,0,3.7229,3.7336,3.7558,3.7669,3.772,3.7825,3.795,3.8053,3.8157,3.8188,3.8275,3.8288,3.8432,3.8358,3.8559,3.8468,3.8538,3.858,3.8588,3.8607,3.8523,3.8671,3.8919,3.8949,3.8622,3.8619,3.8615,0,3.7356,3.7555,3.7715,3.7769,3.7902,3.7977,3.8036,3.8135,3.8213,3.8323,3.8375,3.85,3.857,3.8668,3.8717,3.8658,3.8917,3.8845,3.8949,3.8948,3.9005,3.9002,3.9271,3.9045,3.9044,3.9044,3.9043,0,3.7562,3.7699,3.7774,3.7872,3.8027,3.8068,3.8221,3.8278,3.8367,3.848,3.8489,3.8595,3.8651,3.8766,3.8805,3.8968,3.8998,3.903,3.9039,3.9031,3.9028,3.9079,3.9068,3.9051,3.905,3.9048,3.9047,0,3.7731,3.7786,3.7961,3.8073,3.8104,3.8214,3.8311,3.8409,3.8458,3.86,3.8636,3.8716,3.8852,3.8909,3.9077,3.9103,3.9292,3.9289,3.9256,3.926,3.9362,3.9353,3.9676,3.9723,3.9462,3.9464,3.9466,0,3.786,3.7966,3.8089,3.8164,3.8226,3.8346,3.8426,3.8471,3.8554,3.8683,3.8766,3.8902,3.9013,3.9232,3.9306,3.9435,3.9439,3.9543,3.9458,3.9448,3.9445,3.944,3.9452,3.956,3.9562,3.9564,3.9566,0,3.8085,3.8108,3.8221,3.8345,3.844,3.854,3.8638,3.87,3.8761,3.8854,3.8993,3.9079,3.9251,3.9388,3.9522,3.9586,3.9589,3.9592,3.9623,3.9618,3.9596,3.9613,3.9302,3.9585,3.9583,3.9581,3.958,3.958,3.8241,3.8336,3.8439,3.8566,3.8644,3.8736,3.8834,3.8897,3.9013,3.9155,3.9175,3.9325,3.9431,3.9611,3.9681,3.9801,3.9775,3.9819,3.9832,3.9843,3.9851,3.9574,3.9825,3.9824,3.9824,3.9824,3.9823,0,3.8469,3.8536,3.8652,3.8789,3.889,3.8881,3.899,3.9076,3.9207,3.9304,3.9414,3.9576,3.9709,3.9794,3.9929,4.001,4.0015,4.0044,4.004,4.0056,3.9865,3.9826,4.0038,4.0038,4.0038,4.0038,4.0038,4.0038,3.86,3.8762,3.8798,3.9,3.9066,3.9212,3.9276,3.9362,3.9441,3.9621,3.9731,3.9785,3.9879,4.0022,4.0145,4.0167,4.0218,4.025,4.0271,4.0091,4.0069,4.0048,4.0011,4.026,4.026,4.0453,4.0455,4.0456]}]]